, TX

(GMT )
Midland

Weather History for KMAF - August, 2013

Change the Weather History Date:

Friday, August 2, 2013

  Actual Average Record
Temperature  
Mean Temperature 89 °F 82 °F  
Max Temperature 101 °F 95 °F 106 °F (1944)
Min Temperature 77 °F 70 °F 61 °F (1973)
Cooling Degree Days 24 17  
Month to date cooling degree days 47 34  
Year to date cooling degree days 1617 1416  
Since 1 June cooling degree days 1129 1027  
Growing Degree Days 38 (Base 50)    
Moisture  
Dew Point 53 °F    
Average Humidity 32    
Maximum Humidity 48    
Minimum Humidity 16    
Precipitation  
Precipitation 0.00 in 0.06 in 2.72 in (2007)
Month to date precipitation 0.00 0.12  
Year to date precipitation 3.39 8.00  
Sea Level Pressure  
Sea Level Pressure 29.83 in    
Wind  
Wind Speed 11 mph (South)    
Max Wind Speed 22 mph    
Max Gust Speed 30 mph    
Visibility 10 miles    
Events      
T = Trace of Precipitation, MM = Missing Value Source: NWS Daily Summary

Daily Weather History Graph

Daily Weather History Graph

Search for Another Location

Airport or City:

Astronomy

Aug. 02, 2013 Rise Set
Actual Time 7:05 AM CDT 8:44 PM CDT
Civil Twilight 6:38 AM CDT 9:11 PM CDT
Nautical Twilight 6:06 AM CDT 9:42 PM CDT
Astronomical Twilight 5:33 AM CDT 10:16 PM CDT
Moon 3:30 AM CDT (8/2) 5:41 PM CDT (8/2)
Length of Visible Light 14h 32m
Length of Day
13h 39m
Waning Crescent, 15% of the Moon is Illuminated
Aug 2
Waning Crescent
Aug 6
New
Aug 14
First Quarter
Aug 20
Full
Aug 28
Last Quarter

Hourly Weather History & Observations

Time (CDT) Temp. Heat Index Dew Point Humidity Pressure Visibility Wind Dir Wind Speed Gust Speed Precip Events Conditions
12:53 AM 84.9 °F 83.9 °F 57.0 °F 38% 29.86 in 10.0 mi South 6.9 mph - N/A   Clear
1:53 AM 82.9 °F 82.4 °F 57.0 °F 41% 29.85 in 10.0 mi South 4.6 mph - N/A   Clear
2:53 AM 80.1 °F 80.2 °F 55.9 °F 43% 29.86 in 10.0 mi SE 6.9 mph - N/A   Clear
3:53 AM 79.0 °F - 57.0 °F 47% 29.86 in 10.0 mi South 4.6 mph - N/A   Clear
4:53 AM 79.0 °F - 55.9 °F 45% 29.85 in 10.0 mi South 8.1 mph - N/A   Clear
5:53 AM 78.1 °F - 55.0 °F 45% 29.84 in 10.0 mi South 10.4 mph - N/A   Clear
6:53 AM 77.0 °F - 54.0 °F 45% 29.86 in 10.0 mi SSW 8.1 mph - N/A   Clear
7:53 AM 77.0 °F - 54.0 °F 45% 29.88 in 10.0 mi South 9.2 mph - N/A   Clear
8:53 AM 82.9 °F 82.1 °F 55.9 °F 39% 29.88 in 10.0 mi South 12.7 mph - N/A   Clear
9:53 AM 86.0 °F 84.7 °F 55.9 °F 36% 29.88 in 10.0 mi South 16.1 mph - N/A   Clear
10:53 AM 91.0 °F 89.2 °F 55.9 °F 30% 29.88 in 10.0 mi South 13.8 mph - N/A   Clear
11:53 AM 93.9 °F 91.7 °F 54.0 °F 26% 29.87 in 10.0 mi SSW 16.1 mph 26.5 mph N/A   Clear
12:53 PM 96.1 °F - 52.0 °F 22% 29.86 in 10.0 mi SSW 15.0 mph 25.3 mph N/A   Clear
1:53 PM 98.1 °F - 51.1 °F 20% 29.83 in 10.0 mi SSW 17.3 mph 23.0 mph N/A   Clear
2:53 PM 99.0 °F - 52.0 °F 21% 29.81 in 10.0 mi South 13.8 mph 20.7 mph N/A   Clear
3:53 PM 100.0 °F - 50.0 °F 18% 29.79 in 10.0 mi WSW 9.2 mph - N/A   Clear
4:53 PM 100.0 °F - 48.0 °F 17% 29.77 in 10.0 mi SSW 8.1 mph - N/A   Clear
5:53 PM 100.0 °F - 46.9 °F 16% 29.76 in 10.0 mi Variable 5.8 mph - N/A   Clear
6:53 PM 100.0 °F - 46.9 °F 16% 29.75 in 10.0 mi South 8.1 mph - N/A   Clear
7:53 PM 98.1 °F - 50.0 °F 20% 29.76 in 10.0 mi SE 13.8 mph - N/A   Partly Cloudy
8:53 PM 95.0 °F - 50.0 °F 22% 29.77 in 10.0 mi SSE 13.8 mph - N/A   Clear
9:53 PM 91.9 °F 89.5 °F 53.1 °F 27% 29.79 in 10.0 mi SSE 12.7 mph - N/A   Clear
10:53 PM 89.1 °F 86.7 °F 53.1 °F 29% 29.81 in 10.0 mi SSE 11.5 mph - N/A   Clear
11:53 PM 88.0 °F 85.9 °F 54.0 °F 31% 29.82 in 10.0 mi South 12.7 mph - N/A   Clear